Year,Month,Day,Hour,Minute,Value (Times are PST for temperature in C)
2006,03,12,00,00,4.40
2006,03,12,00,01,4.40
2006,03,12,00,02,4.40
2006,03,12,00,03,4.40
2006,03,12,00,04,4.40
2006,03,12,00,05,4.40
2006,03,12,00,06,4.50
2006,03,12,00,07,4.50
2006,03,12,00,08,4.50
2006,03,12,00,09,4.50
2006,03,12,00,10,4.40
2006,03,12,00,11,4.40
2006,03,12,00,12,4.40
2006,03,12,00,13,4.40
2006,03,12,00,14,4.40
2006,03,12,00,15,4.30
2006,03,12,00,16,4.30
2006,03,12,00,17,4.20
2006,03,12,00,18,4.20
2006,03,12,00,19,4.20
2006,03,12,00,20,4.20
2006,03,12,00,21,4.00
2006,03,12,00,22,4.00
2006,03,12,00,23,3.90
2006,03,12,00,24,3.80
2006,03,12,00,25,3.80
2006,03,12,00,26,3.80
2006,03,12,00,27,3.80
2006,03,12,00,28,3.80
2006,03,12,00,29,3.80
2006,03,12,00,30,3.80
2006,03,12,00,31,3.80
2006,03,12,00,32,3.80
2006,03,12,00,33,3.80
2006,03,12,00,34,3.80
2006,03,12,00,35,3.80
2006,03,12,00,36,3.80
2006,03,12,00,37,3.80
2006,03,12,00,38,3.80
2006,03,12,00,39,3.80
2006,03,12,00,40,3.80
2006,03,12,00,41,3.80
2006,03,12,00,42,3.80
2006,03,12,00,43,3.80
2006,03,12,00,44,3.80
2006,03,12,00,45,3.80
2006,03,12,00,46,3.70
2006,03,12,00,47,3.60
2006,03,12,00,48,3.50
2006,03,12,00,49,3.40
2006,03,12,00,50,3.50
2006,03,12,00,51,3.50
2006,03,12,00,52,3.50
2006,03,12,00,53,3.60
2006,03,12,00,54,3.80
2006,03,12,00,55,3.80
2006,03,12,00,56,3.90
2006,03,12,00,57,3.90
2006,03,12,00,58,3.90
2006,03,12,00,59,3.90
2006,03,12,01,00,3.90
2006,03,12,01,01,3.80
2006,03,12,01,02,3.80
2006,03,12,01,03,3.80
2006,03,12,01,04,3.80
2006,03,12,01,05,3.70
2006,03,12,01,06,3.70
2006,03,12,01,07,3.60
2006,03,12,01,08,3.60
2006,03,12,01,09,3.60
2006,03,12,01,10,3.60
2006,03,12,01,11,3.50
2006,03,12,01,12,3.50
2006,03,12,01,13,3.50
2006,03,12,01,14,3.50
2006,03,12,01,15,3.40
2006,03,12,01,16,3.40
2006,03,12,01,17,3.40
2006,03,12,01,18,3.40
2006,03,12,01,19,3.40
2006,03,12,01,20,3.40
2006,03,12,01,21,3.40
2006,03,12,01,22,3.40
2006,03,12,01,23,3.40
2006,03,12,01,24,3.40
2006,03,12,01,25,3.40
2006,03,12,01,26,3.40
2006,03,12,01,27,3.40
2006,03,12,01,28,3.40
2006,03,12,01,29,3.40
2006,03,12,01,30,3.40
2006,03,12,01,31,3.40
2006,03,12,01,32,3.40
2006,03,12,01,33,3.40
2006,03,12,01,34,3.40
2006,03,12,01,35,3.40
2006,03,12,01,36,3.30
2006,03,12,01,37,3.30
2006,03,12,01,38,3.30
2006,03,12,01,39,3.30
2006,03,12,01,40,3.30
2006,03,12,01,41,3.30
2006,03,12,01,42,3.30
2006,03,12,01,43,3.30
2006,03,12,01,44,3.30
2006,03,12,01,45,3.30
2006,03,12,01,46,3.30
2006,03,12,01,47,3.30
2006,03,12,01,48,3.30
2006,03,12,01,49,3.30
2006,03,12,01,50,3.30
2006,03,12,01,51,3.30
2006,03,12,01,52,3.30
2006,03,12,01,53,3.30
2006,03,12,01,54,3.30
2006,03,12,01,55,3.30
2006,03,12,01,56,3.40
2006,03,12,01,57,3.40
2006,03,12,01,58,3.40
2006,03,12,01,59,3.40
2006,03,12,02,00,3.40
2006,03,12,02,01,3.40
2006,03,12,02,02,3.50
2006,03,12,02,03,3.50
2006,03,12,02,04,3.50
2006,03,12,02,05,3.50
2006,03,12,02,06,3.40
2006,03,12,02,07,3.40
2006,03,12,02,08,3.40
2006,03,12,02,09,3.30
2006,03,12,02,10,3.30
2006,03,12,02,11,3.30
2006,03,12,02,12,3.30
2006,03,12,02,13,3.30
2006,03,12,02,14,3.30
2006,03,12,02,15,3.40
2006,03,12,02,16,3.40
2006,03,12,02,17,3.40
2006,03,12,02,18,3.40
2006,03,12,02,19,3.40
2006,03,12,02,20,3.40
2006,03,12,02,21,3.40
2006,03,12,02,22,3.40
2006,03,12,02,23,3.40
2006,03,12,02,24,3.40
2006,03,12,02,25,3.50
2006,03,12,02,26,3.50
2006,03,12,02,27,3.40
2006,03,12,02,28,3.40
2006,03,12,02,29,3.40
2006,03,12,02,30,3.40
2006,03,12,02,31,3.40
2006,03,12,02,32,3.40
2006,03,12,02,33,3.50
2006,03,12,02,34,3.50
2006,03,12,02,35,3.50
2006,03,12,02,36,3.50
2006,03,12,02,37,3.60
2006,03,12,02,38,3.60
2006,03,12,02,39,3.60
2006,03,12,02,40,3.50
2006,03,12,02,41,3.50
2006,03,12,02,42,3.50
2006,03,12,02,43,3.50
2006,03,12,02,44,3.50
2006,03,12,02,45,3.50
2006,03,12,02,46,3.50
2006,03,12,02,47,3.50
2006,03,12,02,48,3.60
2006,03,12,02,49,3.60
2006,03,12,02,50,3.60
2006,03,12,02,51,3.60
2006,03,12,02,52,3.60
2006,03,12,02,53,3.60
2006,03,12,02,54,3.70
2006,03,12,02,55,3.70
2006,03,12,02,56,3.70
2006,03,12,02,57,3.70
2006,03,12,02,58,3.70
2006,03,12,02,59,3.70
2006,03,12,03,00,3.70
2006,03,12,03,01,3.70
2006,03,12,03,02,3.70
2006,03,12,03,03,3.70
2006,03,12,03,04,3.80
2006,03,12,03,05,3.70
2006,03,12,03,06,3.70
2006,03,12,03,07,3.70
2006,03,12,03,08,3.70
2006,03,12,03,09,3.70
2006,03,12,03,10,3.70
2006,03,12,03,11,3.70
2006,03,12,03,12,3.70
2006,03,12,03,13,3.70
2006,03,12,03,14,3.70
2006,03,12,03,15,3.70
2006,03,12,03,16,3.70
2006,03,12,03,17,3.70
2006,03,12,03,18,3.70
2006,03,12,03,19,3.70
2006,03,12,03,20,3.70
2006,03,12,03,21,3.70
2006,03,12,03,22,3.70
2006,03,12,03,23,3.70
2006,03,12,03,24,3.60
2006,03,12,03,25,3.60
2006,03,12,03,26,3.60
2006,03,12,03,27,3.60
2006,03,12,03,28,3.50
2006,03,12,03,29,3.50
2006,03,12,03,30,3.50
2006,03,12,03,31,3.50
2006,03,12,03,32,3.50
2006,03,12,03,33,3.50
2006,03,12,03,34,3.50
2006,03,12,03,35,3.50
2006,03,12,03,36,3.50
2006,03,12,03,37,3.50
2006,03,12,03,38,3.50
2006,03,12,03,39,3.50
2006,03,12,03,40,3.50
2006,03,12,03,41,3.50
2006,03,12,03,42,3.50
2006,03,12,03,43,3.50
2006,03,12,03,44,3.40
2006,03,12,03,45,3.40
2006,03,12,03,46,3.40
2006,03,12,03,47,3.40
2006,03,12,03,48,3.40
2006,03,12,03,49,3.40
2006,03,12,03,50,3.40
2006,03,12,03,51,3.40
2006,03,12,03,52,3.30
2006,03,12,03,53,3.30
2006,03,12,03,54,3.30
2006,03,12,03,55,3.30
2006,03,12,03,56,3.30
2006,03,12,03,57,3.30
2006,03,12,03,58,3.30
2006,03,12,03,59,3.30
2006,03,12,04,00,3.30
2006,03,12,04,01,3.30
2006,03,12,04,02,3.30
2006,03,12,04,03,3.40
2006,03,12,04,04,3.40
2006,03,12,04,05,3.40
2006,03,12,04,06,3.40
2006,03,12,04,07,3.30
2006,03,12,04,08,3.30
2006,03,12,04,09,3.30
2006,03,12,04,10,3.30
2006,03,12,04,11,3.30
2006,03,12,04,12,3.30
2006,03,12,04,13,3.30
2006,03,12,04,14,3.30
2006,03,12,04,15,3.30
2006,03,12,04,16,3.30
2006,03,12,04,17,3.30
2006,03,12,04,18,3.20
2006,03,12,04,19,3.20
2006,03,12,04,20,3.20
2006,03,12,04,21,3.20
2006,03,12,04,22,3.20
2006,03,12,04,23,3.10
2006,03,12,04,24,3.10
2006,03,12,04,25,3.10
2006,03,12,04,26,3.10
2006,03,12,04,27,3.10
2006,03,12,04,28,3.10
2006,03,12,04,29,3.10
2006,03,12,04,30,2.90
2006,03,12,04,31,2.90
2006,03,12,04,32,2.90
2006,03,12,04,33,2.90
2006,03,12,04,34,2.90
2006,03,12,04,35,2.80
2006,03,12,04,36,2.80
2006,03,12,04,37,2.70
2006,03,12,04,38,2.70
2006,03,12,04,39,2.70
2006,03,12,04,40,2.70
2006,03,12,04,41,2.70
2006,03,12,04,42,2.60
2006,03,12,04,43,2.60
2006,03,12,04,44,2.60
2006,03,12,04,45,2.50
2006,03,12,04,46,2.50
2006,03,12,04,47,2.50
2006,03,12,04,48,2.50
2006,03,12,04,49,2.50
2006,03,12,04,50,2.50
2006,03,12,04,51,2.50
2006,03,12,04,52,2.50
2006,03,12,04,53,2.50
2006,03,12,04,54,2.50
2006,03,12,04,55,2.50
2006,03,12,04,56,2.50
2006,03,12,04,57,2.50
2006,03,12,04,58,2.50
2006,03,12,04,59,2.50
2006,03,12,05,00,2.50
2006,03,12,05,01,2.50
2006,03,12,05,02,2.50
2006,03,12,05,03,2.50
2006,03,12,05,04,2.50
2006,03,12,05,05,2.50
2006,03,12,05,06,2.50
2006,03,12,05,07,2.50
2006,03,12,05,08,2.50
2006,03,12,05,09,2.50
2006,03,12,05,10,2.50
2006,03,12,05,11,2.50
2006,03,12,05,12,2.50
2006,03,12,05,13,2.50
2006,03,12,05,14,2.50
2006,03,12,05,15,2.50
2006,03,12,05,16,2.50
2006,03,12,05,17,2.40
2006,03,12,05,18,2.40
2006,03,12,05,19,2.40
2006,03,12,05,20,2.40
2006,03,12,05,21,2.40
2006,03,12,05,22,2.40
2006,03,12,05,23,2.40
2006,03,12,05,24,2.40
2006,03,12,05,25,2.40
2006,03,12,05,26,2.40
2006,03,12,05,27,2.30
2006,03,12,05,28,2.30
2006,03,12,05,29,2.30
2006,03,12,05,30,2.30
2006,03,12,05,31,2.30
2006,03,12,05,32,2.20
2006,03,12,05,33,2.20
2006,03,12,05,34,2.20
2006,03,12,05,35,2.20
2006,03,12,05,36,2.20
2006,03,12,05,37,2.20
2006,03,12,05,38,2.20
2006,03,12,05,39,2.20
2006,03,12,05,40,2.20
2006,03,12,05,41,2.20
2006,03,12,05,42,2.20
2006,03,12,05,43,2.20
2006,03,12,05,44,2.20
2006,03,12,05,45,2.20
2006,03,12,05,46,2.20
2006,03,12,05,47,2.20
2006,03,12,05,48,2.10
2006,03,12,05,49,2.10
2006,03,12,05,50,2.10
2006,03,12,05,51,2.10
2006,03,12,05,52,2.00
2006,03,12,05,53,2.00
2006,03,12,05,54,2.00
2006,03,12,05,55,2.00
2006,03,12,05,56,2.00
2006,03,12,05,57,2.00
2006,03,12,05,58,2.00
2006,03,12,05,59,1.90
2006,03,12,06,00,1.90
2006,03,12,06,01,1.90
2006,03,12,06,02,1.90
2006,03,12,06,03,1.90
2006,03,12,06,04,1.90
2006,03,12,06,05,1.90
2006,03,12,06,06,1.90
2006,03,12,06,07,1.90
2006,03,12,06,08,1.90
2006,03,12,06,09,1.90
2006,03,12,06,10,1.90
2006,03,12,06,11,1.90
2006,03,12,06,12,1.90
2006,03,12,06,13,1.90
2006,03,12,06,14,1.90
2006,03,12,06,15,1.90
2006,03,12,06,16,1.90
2006,03,12,06,17,1.90
2006,03,12,06,18,1.90
2006,03,12,06,19,1.90
2006,03,12,06,20,1.90
2006,03,12,06,21,1.90
2006,03,12,06,22,1.90
2006,03,12,06,23,1.90
2006,03,12,06,24,1.90
2006,03,12,06,25,1.90
2006,03,12,06,26,1.90
2006,03,12,06,27,1.90
2006,03,12,06,28,1.90
2006,03,12,06,29,1.90
2006,03,12,06,30,1.90
2006,03,12,06,31,1.90
2006,03,12,06,32,1.90
2006,03,12,06,33,1.90
2006,03,12,06,34,1.90
2006,03,12,06,35,1.90
2006,03,12,06,36,2.00
2006,03,12,06,37,2.00
2006,03,12,06,38,2.00
2006,03,12,06,39,2.00
2006,03,12,06,40,2.00
2006,03,12,06,41,2.00
2006,03,12,06,42,2.00
2006,03,12,06,43,2.00
2006,03,12,06,44,2.00
2006,03,12,06,45,2.00
2006,03,12,06,46,2.00
2006,03,12,06,47,2.00
2006,03,12,06,48,2.00
2006,03,12,06,49,2.00
2006,03,12,06,50,2.00
2006,03,12,06,51,2.00
2006,03,12,06,52,2.00
2006,03,12,06,53,2.00
2006,03,12,06,54,2.00
2006,03,12,06,55,2.00
2006,03,12,06,56,2.00
2006,03,12,06,57,2.00
2006,03,12,06,58,2.00
2006,03,12,06,59,1.90
2006,03,12,07,00,1.90
2006,03,12,07,01,1.90
2006,03,12,07,02,1.90
2006,03,12,07,03,1.90
2006,03,12,07,04,1.90
2006,03,12,07,05,1.90
2006,03,12,07,06,1.80
2006,03,12,07,07,1.80
2006,03,12,07,08,1.80
2006,03,12,07,09,1.80
2006,03,12,07,10,1.80
2006,03,12,07,11,1.80
2006,03,12,07,12,1.80
2006,03,12,07,13,1.80
2006,03,12,07,14,1.80
2006,03,12,07,15,1.80
2006,03,12,07,16,1.80
2006,03,12,07,17,1.80
2006,03,12,07,18,1.80
2006,03,12,07,19,1.80
2006,03,12,07,20,1.80
2006,03,12,07,21,1.90
2006,03,12,07,22,1.90
2006,03,12,07,23,2.00
2006,03,12,07,24,2.00
2006,03,12,07,25,2.00
2006,03,12,07,26,2.10
2006,03,12,07,27,2.10
2006,03,12,07,28,2.20
2006,03,12,07,29,2.20
2006,03,12,07,30,2.20
2006,03,12,07,31,2.20
2006,03,12,07,32,2.20
2006,03,12,07,33,2.30
2006,03,12,07,34,2.30
2006,03,12,07,35,2.40
2006,03,12,07,36,2.40
2006,03,12,07,37,2.50
2006,03,12,07,38,2.50
2006,03,12,07,39,2.60
2006,03,12,07,40,2.60
2006,03,12,07,41,2.70
2006,03,12,07,42,2.70
2006,03,12,07,43,2.70
2006,03,12,07,44,2.70
2006,03,12,07,45,2.80
2006,03,12,07,46,2.80
2006,03,12,07,47,2.90
2006,03,12,07,48,2.90
2006,03,12,07,49,2.90
2006,03,12,07,50,3.00
2006,03,12,07,51,3.10
2006,03,12,07,52,3.10
2006,03,12,07,53,3.10
2006,03,12,07,54,3.20
2006,03,12,07,55,3.20
2006,03,12,07,56,3.30
2006,03,12,07,57,3.30
2006,03,12,07,58,3.30
2006,03,12,07,59,3.40
2006,03,12,08,00,3.40
2006,03,12,08,01,3.50
2006,03,12,08,02,3.50
2006,03,12,08,03,3.60
2006,03,12,08,04,3.70
2006,03,12,08,05,3.70
2006,03,12,08,06,3.80
2006,03,12,08,07,3.80
2006,03,12,08,08,3.80
2006,03,12,08,09,3.90
2006,03,12,08,10,3.90
2006,03,12,08,11,4.00
2006,03,12,08,12,4.00
2006,03,12,08,13,4.00
2006,03,12,08,14,4.10
2006,03,12,08,15,4.10
2006,03,12,08,16,4.20
2006,03,12,08,17,4.20
2006,03,12,08,18,4.20
2006,03,12,08,19,4.30
2006,03,12,08,20,4.40
2006,03,12,08,21,4.40
2006,03,12,08,22,4.50
2006,03,12,08,23,4.50
2006,03,12,08,24,4.60
2006,03,12,08,25,4.60
2006,03,12,08,26,4.60
2006,03,12,08,27,4.70
2006,03,12,08,28,4.70
2006,03,12,08,29,4.70
2006,03,12,08,30,4.80
2006,03,12,08,31,4.80
2006,03,12,08,32,4.90
2006,03,12,08,33,4.90
2006,03,12,08,34,4.90
2006,03,12,08,35,5.00
2006,03,12,08,36,5.10
2006,03,12,08,37,5.10
2006,03,12,08,38,5.10
2006,03,12,08,39,5.10
2006,03,12,08,40,5.20
2006,03,12,08,41,5.20
2006,03,12,08,42,5.20
2006,03,12,08,43,5.30
2006,03,12,08,44,5.30
2006,03,12,08,45,5.30
2006,03,12,08,46,5.30
2006,03,12,08,47,5.30
2006,03,12,08,48,5.40
2006,03,12,08,49,5.40
2006,03,12,08,50,5.40
2006,03,12,08,51,5.40
2006,03,12,08,52,5.40
2006,03,12,08,53,5.30
2006,03,12,08,54,5.30
2006,03,12,08,55,5.30
2006,03,12,08,56,5.30
2006,03,12,08,57,5.30
2006,03,12,08,58,5.30
2006,03,12,08,59,5.30
2006,03,12,09,00,5.30
2006,03,12,09,01,5.30
2006,03,12,09,02,5.30
2006,03,12,09,03,5.40
2006,03,12,09,04,5.40
2006,03,12,09,05,5.50
2006,03,12,09,06,5.50
2006,03,12,09,07,5.50
2006,03,12,09,08,5.50
2006,03,12,09,09,5.40
2006,03,12,09,10,5.40
2006,03,12,09,11,5.40
2006,03,12,09,12,5.40
2006,03,12,09,13,5.40
2006,03,12,09,14,5.50
2006,03,12,09,15,5.50
2006,03,12,09,16,5.50
2006,03,12,09,17,5.50
2006,03,12,09,18,5.60
2006,03,12,09,19,5.60
2006,03,12,09,20,5.60
2006,03,12,09,21,5.70
2006,03,12,09,22,5.70
2006,03,12,09,23,5.70
2006,03,12,09,24,5.70
2006,03,12,09,25,5.70
2006,03,12,09,26,5.70
2006,03,12,09,27,5.60
2006,03,12,09,28,5.60
2006,03,12,09,29,5.70
2006,03,12,09,30,5.70
2006,03,12,09,31,5.70
2006,03,12,09,32,5.80
2006,03,12,09,33,5.80
2006,03,12,09,34,5.90
2006,03,12,09,35,5.90
2006,03,12,09,36,5.90
2006,03,12,09,37,5.90
2006,03,12,09,38,5.80
2006,03,12,09,39,5.80
2006,03,12,09,40,5.90
2006,03,12,09,41,5.90
2006,03,12,09,42,5.90
2006,03,12,09,43,5.90
2006,03,12,09,44,5.90
2006,03,12,09,45,6.00
2006,03,12,09,46,6.00
2006,03,12,09,47,6.10
2006,03,12,09,48,6.10
2006,03,12,09,49,6.20
2006,03,12,09,50,6.20
2006,03,12,09,51,6.20
2006,03,12,09,52,6.20
2006,03,12,09,53,6.30
2006,03,12,09,54,6.40
2006,03,12,09,55,6.50
2006,03,12,09,56,6.60
2006,03,12,09,57,6.70
2006,03,12,09,58,6.70
2006,03,12,09,59,6.80
2006,03,12,10,00,6.80
2006,03,12,10,01,6.90
2006,03,12,10,02,6.90
2006,03,12,10,03,7.00
2006,03,12,10,04,7.00
2006,03,12,10,05,7.00
2006,03,12,10,06,7.00
2006,03,12,10,07,6.90
2006,03,12,10,08,7.00
2006,03,12,10,09,7.00
2006,03,12,10,10,7.00
2006,03,12,10,11,7.00
2006,03,12,10,12,7.10
2006,03,12,10,13,7.20
2006,03,12,10,14,7.30
2006,03,12,10,15,7.40
2006,03,12,10,16,7.50
2006,03,12,10,17,7.50
2006,03,12,10,18,7.60
2006,03,12,10,19,7.60
2006,03,12,10,20,7.60
2006,03,12,10,21,7.60
2006,03,12,10,22,7.60
2006,03,12,10,23,7.60
2006,03,12,10,24,7.60
2006,03,12,10,25,7.60
2006,03,12,10,26,7.40
2006,03,12,10,27,7.30
2006,03,12,10,28,7.30
2006,03,12,10,29,7.40
2006,03,12,10,30,7.40
2006,03,12,10,31,7.50
2006,03,12,10,32,7.60
2006,03,12,10,33,7.60
2006,03,12,10,34,7.60
2006,03,12,10,35,7.70
2006,03,12,10,36,7.70
2006,03,12,10,37,7.80
2006,03,12,10,38,7.80
2006,03,12,10,39,7.80
2006,03,12,10,40,7.90
2006,03,12,10,41,7.90
2006,03,12,10,42,7.90
2006,03,12,10,43,7.80
2006,03,12,10,44,7.80
2006,03,12,10,45,7.80
2006,03,12,10,46,7.80
2006,03,12,10,47,7.80
2006,03,12,10,48,7.80
2006,03,12,10,49,7.90
2006,03,12,10,50,7.90
2006,03,12,10,51,8.00
2006,03,12,10,52,8.00
2006,03,12,10,53,8.00
2006,03,12,10,54,8.00
2006,03,12,10,55,7.90
2006,03,12,10,56,7.90
2006,03,12,10,57,8.00
2006,03,12,10,58,8.00
2006,03,12,10,59,8.10
2006,03,12,11,00,8.20
2006,03,12,11,01,8.20
2006,03,12,11,02,8.30
2006,03,12,11,03,8.30
2006,03,12,11,04,8.40
2006,03,12,11,05,8.40
2006,03,12,11,06,8.40
2006,03,12,11,07,8.50
2006,03,12,11,08,8.50
2006,03,12,11,09,8.60
2006,03,12,11,10,8.50
2006,03,12,11,11,8.50
2006,03,12,11,12,8.50
2006,03,12,11,13,8.50
2006,03,12,11,14,8.50
2006,03,12,11,15,8.60
2006,03,12,11,16,8.60
2006,03,12,11,17,8.60
2006,03,12,11,18,8.50
2006,03,12,11,19,8.30
2006,03,12,11,20,8.20
2006,03,12,11,21,8.20
2006,03,12,11,22,8.20
2006,03,12,11,23,8.20
2006,03,12,11,24,8.30
2006,03,12,11,25,8.40
2006,03,12,11,26,8.40
2006,03,12,11,27,8.40
2006,03,12,11,28,8.40
2006,03,12,11,29,8.50
2006,03,12,11,30,8.60
2006,03,12,11,31,8.60
2006,03,12,11,32,8.60
2006,03,12,11,33,8.60
2006,03,12,11,34,8.70
2006,03,12,11,35,8.70
2006,03,12,11,36,8.70
2006,03,12,11,37,8.70
2006,03,12,11,38,8.80
2006,03,12,11,39,8.80
2006,03,12,11,40,8.90
2006,03,12,11,41,8.90
2006,03,12,11,42,9.00
2006,03,12,11,43,9.00
2006,03,12,11,44,9.00
2006,03,12,11,45,9.00
2006,03,12,11,46,9.00
2006,03,12,11,47,9.00
2006,03,12,11,48,8.90
2006,03,12,11,49,8.60
2006,03,12,11,50,8.60
2006,03,12,11,51,8.60
2006,03,12,11,52,8.60
2006,03,12,11,53,8.60
2006,03,12,11,54,8.70
2006,03,12,11,55,8.70
2006,03,12,11,56,8.80
2006,03,12,11,57,8.90
2006,03,12,11,58,9.00
2006,03,12,11,59,9.00
2006,03,12,12,00,9.00
2006,03,12,12,01,9.10
2006,03,12,12,02,9.10
2006,03,12,12,03,9.20
2006,03,12,12,04,9.20
2006,03,12,12,05,9.20
2006,03,12,12,06,9.10
2006,03,12,12,07,9.10
2006,03,12,12,08,9.10
2006,03,12,12,09,9.10
2006,03,12,12,10,9.10
2006,03,12,12,11,9.00
2006,03,12,12,12,9.00
2006,03,12,12,13,9.00
2006,03,12,12,14,9.00
2006,03,12,12,15,9.00
2006,03,12,12,16,9.00
2006,03,12,12,17,9.10
2006,03,12,12,18,9.10
2006,03,12,12,19,9.20
2006,03,12,12,20,9.20
2006,03,12,12,21,9.20
2006,03,12,12,22,9.20
2006,03,12,12,23,9.20
2006,03,12,12,24,9.20
2006,03,12,12,25,9.20
2006,03,12,12,26,9.20
2006,03,12,12,27,9.20
2006,03,12,12,28,9.20
2006,03,12,12,29,9.10
2006,03,12,12,30,9.10
2006,03,12,12,31,9.10
2006,03,12,12,32,9.10
2006,03,12,12,33,9.20
2006,03,12,12,34,9.20
2006,03,12,12,35,9.30
2006,03,12,12,36,9.40
2006,03,12,12,37,9.50
2006,03,12,12,38,9.50
2006,03,12,12,39,9.60
2006,03,12,12,40,9.60
2006,03,12,12,41,9.60
2006,03,12,12,42,9.70
2006,03,12,12,43,9.70
2006,03,12,12,44,9.60
2006,03,12,12,45,9.60
2006,03,12,12,46,9.70
2006,03,12,12,47,9.70
2006,03,12,12,48,9.70
2006,03,12,12,49,9.80
2006,03,12,12,50,9.80
2006,03,12,12,51,9.90
2006,03,12,12,52,9.90
2006,03,12,12,53,9.90
2006,03,12,12,54,9.90
2006,03,12,12,55,9.90
2006,03,12,12,56,9.90
2006,03,12,12,57,9.90
2006,03,12,12,58,9.90
2006,03,12,12,59,9.90
2006,03,12,13,00,9.90
2006,03,12,13,01,9.90
2006,03,12,13,02,9.80
2006,03,12,13,03,9.80
2006,03,12,13,04,9.70
2006,03,12,13,05,9.70
2006,03,12,13,06,9.70
2006,03,12,13,07,9.80
2006,03,12,13,08,9.80
2006,03,12,13,09,9.90
2006,03,12,13,10,9.90
2006,03,12,13,11,9.90
2006,03,12,13,12,9.90
2006,03,12,13,13,9.90
2006,03,12,13,14,10.00
2006,03,12,13,15,10.10
2006,03,12,13,16,10.10
2006,03,12,13,17,10.10
2006,03,12,13,18,10.10
2006,03,12,13,19,10.10
2006,03,12,13,20,10.20
2006,03,12,13,21,10.30
2006,03,12,13,22,10.30
2006,03,12,13,23,10.40
2006,03,12,13,24,10.40
2006,03,12,13,25,10.40
2006,03,12,13,26,10.40
2006,03,12,13,27,10.40
2006,03,12,13,28,10.40
2006,03,12,13,29,10.40
2006,03,12,13,30,10.40
2006,03,12,13,31,10.30
2006,03,12,13,32,10.20
2006,03,12,13,33,10.20
2006,03,12,13,34,10.20
2006,03,12,13,35,10.20
2006,03,12,13,36,10.20
2006,03,12,13,37,10.00
2006,03,12,13,38,9.90
2006,03,12,13,39,9.90
2006,03,12,13,40,9.90
2006,03,12,13,41,9.90
2006,03,12,13,42,9.90
2006,03,12,13,43,9.90
2006,03,12,13,44,9.90
2006,03,12,13,45,9.90
2006,03,12,13,46,9.90
2006,03,12,13,47,9.90
2006,03,12,13,48,10.10
2006,03,12,13,49,10.10
2006,03,12,13,50,10.20
2006,03,12,13,51,10.30
2006,03,12,13,52,10.30
2006,03,12,13,53,10.20
2006,03,12,13,54,10.30
2006,03,12,13,55,10.10
2006,03,12,13,56,10.00
2006,03,12,13,57,9.90
2006,03,12,13,58,9.90
2006,03,12,13,59,9.90
2006,03,12,14,00,9.90
2006,03,12,14,01,9.90
2006,03,12,14,02,9.90
2006,03,12,14,03,10.10
2006,03,12,14,04,10.10
2006,03,12,14,05,10.10
2006,03,12,14,06,10.20
2006,03,12,14,07,10.30
2006,03,12,14,08,10.30
2006,03,12,14,09,10.40
2006,03,12,14,10,10.50
2006,03,12,14,11,10.60
2006,03,12,14,12,10.60
2006,03,12,14,13,10.70
2006,03,12,14,14,10.80
2006,03,12,14,15,10.90
2006,03,12,14,16,10.90
2006,03,12,14,17,11.00
2006,03,12,14,18,11.10
2006,03,12,14,19,11.10
2006,03,12,14,20,11.00
2006,03,12,14,21,10.90
2006,03,12,14,22,10.90
2006,03,12,14,23,10.80
2006,03,12,14,24,10.70
2006,03,12,14,25,10.70
2006,03,12,14,26,10.60
2006,03,12,14,27,10.60
2006,03,12,14,28,10.60
2006,03,12,14,29,10.60
2006,03,12,14,30,10.60
2006,03,12,14,31,10.70
2006,03,12,14,32,10.70
2006,03,12,14,33,10.60
2006,03,12,14,34,10.60
2006,03,12,14,35,10.50
2006,03,12,14,36,10.40
2006,03,12,14,37,10.30
2006,03,12,14,38,10.20
2006,03,12,14,39,10.10
2006,03,12,14,40,10.10
2006,03,12,14,41,10.20
2006,03,12,14,42,10.20
2006,03,12,14,43,10.20
2006,03,12,14,44,10.20
2006,03,12,14,45,10.10
2006,03,12,14,46,9.80
2006,03,12,14,47,9.40
2006,03,12,14,48,9.00
2006,03,12,14,49,8.80
2006,03,12,14,50,8.70
2006,03,12,14,51,8.70
2006,03,12,14,52,8.60
2006,03,12,14,53,8.40
2006,03,12,14,54,8.30
2006,03,12,14,55,8.20
2006,03,12,14,56,8.20
2006,03,12,14,57,8.10
2006,03,12,14,58,8.00
2006,03,12,14,59,7.90
2006,03,12,15,00,8.00
2006,03,12,15,01,8.00
2006,03,12,15,02,8.10
2006,03,12,15,03,8.20
2006,03,12,15,04,8.40
2006,03,12,15,05,8.60
2006,03,12,15,06,8.70
2006,03,12,15,07,8.60
2006,03,12,15,08,8.60
2006,03,12,15,09,8.60
2006,03,12,15,10,8.70
2006,03,12,15,11,8.50
2006,03,12,15,12,8.50
2006,03,12,15,13,8.50
2006,03,12,15,14,8.50
2006,03,12,15,15,8.50
2006,03,12,15,16,8.40
2006,03,12,15,17,8.20
2006,03,12,15,18,8.20
2006,03,12,15,19,8.00
2006,03,12,15,20,8.00
2006,03,12,15,21,7.90
2006,03,12,15,22,8.00
2006,03,12,15,23,8.00
2006,03,12,15,24,8.00
2006,03,12,15,25,8.20
2006,03,12,15,26,8.10
2006,03,12,15,27,8.00
2006,03,12,15,28,7.90
2006,03,12,15,29,8.00
2006,03,12,15,30,8.10
2006,03,12,15,31,8.10
2006,03,12,15,32,8.00
2006,03,12,15,33,8.00
2006,03,12,15,34,8.00
2006,03,12,15,35,8.10
2006,03,12,15,36,8.20
2006,03,12,15,37,8.40
2006,03,12,15,38,8.60
2006,03,12,15,39,8.60
2006,03,12,15,40,8.40
2006,03,12,15,41,8.20
2006,03,12,15,42,8.00
2006,03,12,15,43,7.90
2006,03,12,15,44,7.80
2006,03,12,15,45,7.90
2006,03,12,15,46,8.00
2006,03,12,15,47,8.00
2006,03,12,15,48,8.10
2006,03,12,15,49,8.00
2006,03,12,15,50,7.90
2006,03,12,15,51,7.80
2006,03,12,15,52,7.80
2006,03,12,15,53,7.90
2006,03,12,15,54,7.90
2006,03,12,15,55,7.80
2006,03,12,15,56,7.80
2006,03,12,15,57,7.90
2006,03,12,15,58,8.00
2006,03,12,15,59,8.10
2006,03,12,16,00,8.20
2006,03,12,16,01,8.20
2006,03,12,16,02,8.30
2006,03,12,16,03,8.50
2006,03,12,16,04,8.50
2006,03,12,16,05,8.50
2006,03,12,16,06,8.40
2006,03,12,16,07,8.30
2006,03,12,16,08,8.30
2006,03,12,16,09,8.20
2006,03,12,16,10,8.20
2006,03,12,16,11,8.20
2006,03,12,16,12,8.10
2006,03,12,16,13,8.00
2006,03,12,16,14,7.90
2006,03,12,16,15,8.00
2006,03,12,16,16,8.00
2006,03,12,16,17,8.10
2006,03,12,16,18,8.10
2006,03,12,16,19,8.10
2006,03,12,16,20,8.00
2006,03,12,16,21,8.00
2006,03,12,16,22,8.00
2006,03,12,16,23,7.90
2006,03,12,16,24,7.80
2006,03,12,16,25,7.80
2006,03,12,16,26,7.80
2006,03,12,16,27,7.80
2006,03,12,16,28,7.80
2006,03,12,16,29,7.70
2006,03,12,16,30,7.70
2006,03,12,16,31,7.60
2006,03,12,16,32,7.60
2006,03,12,16,33,7.70
2006,03,12,16,34,7.70
2006,03,12,16,35,7.70
2006,03,12,16,36,7.70
2006,03,12,16,37,7.80
2006,03,12,16,38,7.80
2006,03,12,16,39,7.80
2006,03,12,16,40,7.80
2006,03,12,16,41,7.80
2006,03,12,16,42,7.80
2006,03,12,16,43,7.80
2006,03,12,16,44,7.70
2006,03,12,16,45,7.60
2006,03,12,16,46,7.60
2006,03,12,16,47,7.60
2006,03,12,16,48,7.60
2006,03,12,16,49,7.70
2006,03,12,16,50,7.70
2006,03,12,16,51,7.70
2006,03,12,16,52,7.70
2006,03,12,16,53,7.70
2006,03,12,16,54,7.60
2006,03,12,16,55,7.60
2006,03,12,16,56,7.70
2006,03,12,16,57,7.70
2006,03,12,16,58,7.60
2006,03,12,16,59,7.60
2006,03,12,17,00,7.60
2006,03,12,17,01,7.50
2006,03,12,17,02,7.50
2006,03,12,17,03,7.40
2006,03,12,17,04,7.40
2006,03,12,17,05,7.50
2006,03,12,17,06,7.50
2006,03,12,17,07,7.40
2006,03,12,17,08,7.40
2006,03,12,17,09,7.40
2006,03,12,17,10,7.30
2006,03,12,17,11,7.30
2006,03,12,17,12,7.30
2006,03,12,17,13,7.40
2006,03,12,17,14,7.40
2006,03,12,17,15,7.40
2006,03,12,17,16,7.30
2006,03,12,17,17,7.30
2006,03,12,17,18,7.30
2006,03,12,17,19,7.30
2006,03,12,17,20,7.30
2006,03,12,17,21,7.30
2006,03,12,17,22,7.20
2006,03,12,17,23,7.20
2006,03,12,17,24,7.20
2006,03,12,17,25,7.20
2006,03,12,17,26,7.20
2006,03,12,17,27,7.20
2006,03,12,17,28,7.20
2006,03,12,17,29,7.20
2006,03,12,17,30,7.20
2006,03,12,17,31,7.20
2006,03,12,17,32,7.20
2006,03,12,17,33,7.10
2006,03,12,17,34,7.10
2006,03,12,17,35,7.10
2006,03,12,17,36,7.10
2006,03,12,17,37,7.00
2006,03,12,17,38,7.00
2006,03,12,17,39,7.00
2006,03,12,17,40,7.00
2006,03,12,17,41,7.00
2006,03,12,17,42,7.10
2006,03,12,17,43,7.10
2006,03,12,17,44,7.10
2006,03,12,17,45,7.10
2006,03,12,17,46,7.10
2006,03,12,17,47,7.10
2006,03,12,17,48,7.00
2006,03,12,17,49,7.00
2006,03,12,17,50,7.00
2006,03,12,17,51,7.00
2006,03,12,17,52,6.90
2006,03,12,17,53,6.90
2006,03,12,17,54,6.90
2006,03,12,17,55,6.90
2006,03,12,17,56,6.80
2006,03,12,17,57,6.80
2006,03,12,17,58,6.80
2006,03,12,17,59,6.80
2006,03,12,18,00,6.80
2006,03,12,18,01,6.80
2006,03,12,18,02,6.80
2006,03,12,18,03,6.80